This is the latest recevied weather packets stored in our database for station/object W1RCY. If no packets are shown the sender has not sent any weather packets the latest 10 day(s).
| Time | Temp. | Humidity | Pressure | Rain* | Wind** | Luminosity | Snow |
|---|---|---|---|---|---|---|---|
| 1778074504 | 17.22° C | 82% | 1007.3 hPa | 0 mm | - | 129 W/m² | - |
| 1778074200 | 17.22° C | 82% | 1007.3 hPa | 0 mm | - | 112 W/m² | - |
| 1778073897 | 16.67° C | 82% | 1007.2 hPa | 0 mm | - | 111 W/m² | - |
| 1778073595 | 16.67° C | 82% | 1007.1 hPa | 0 mm | - | 111 W/m² | - |
| 1778073292 | 16.67° C | 83% | 1007.2 hPa | 0 mm | - | 111 W/m² | - |
| 1778072988 | 16.67° C | 83% | 1007.3 hPa | 0 mm | - | 97 W/m² | - |
| 1778072685 | 16.67° C | 83% | 1007.1 hPa | 0 mm | - | 88 W/m² | - |
| 1778072383 | 16.67° C | 83% | 1007.2 hPa | 0 mm | - | 101 W/m² | - |
| 1778072081 | 16.67° C | 83% | 1007.2 hPa | 0 mm | - | 148 W/m² | - |
| 1778071779 | 16.67° C | 83% | 1007.2 hPa | 0 mm | - | 109 W/m² | - |
| 1778071476 | 16.11° C | 83% | 1007.2 hPa | 0 mm | - | 135 W/m² | - |
| 1778071174 | 16.11° C | 83% | 1007.2 hPa | 0 mm | - | 144 W/m² | - |
| 1778070872 | 16.11° C | 84% | 1007 hPa | 0 mm | - | 147 W/m² | - |
| 1778070569 | 16.11° C | 83% | 1007.2 hPa | 0 mm | - | 102 W/m² | - |
| 1778070265 | 16.11° C | 83% | 1007.1 hPa | 0 mm | - | 95 W/m² | - |
| 1778069964 | 16.11° C | 83% | 1007.3 hPa | 0 mm | - | 132 W/m² | - |
| 1778069660 | 16.11° C | 83% | 1007.3 hPa | 0 mm | - | 121 W/m² | - |
| 1778069358 | 16.11° C | 83% | 1007.5 hPa | 0 mm | - | 134 W/m² | - |
| 1778069055 | 16.11° C | 84% | 1007.4 hPa | 0 mm | - | 147 W/m² | - |
| 1778068752 | 15.56° C | 84% | 1007.3 hPa | 0 mm | - | 157 W/m² | - |
| 1778068450 | 15.56° C | 84% | 1007.6 hPa | 0 mm | - | 155 W/m² | - |
| 1778068148 | 15.56° C | 84% | 1007.8 hPa | 0 mm | - | 126 W/m² | - |
| 1778067845 | 15.56° C | 84% | 1007.5 hPa | 0 mm | - | 94 W/m² | - |
| 1778067544 | 15.56° C | 84% | 1007.6 hPa | 0 mm | - | 71 W/m² | - |
| 1778067241 | 15.56° C | 84% | 1007.2 hPa | 0 mm | - | 105 W/m² | - |
* Rain latest hour (hover to see other rain measurements)
** Current wind speed in m/s (hover to see current wind gust speed)